Change the Weather History Date:

Friday, March 21, 2014

  Actual Average (KHBI) Record (KHBI)
Temperature  
Mean Temperature 48 °F -  
Max Temperature 68 °F 65 °F 86 °F (1968)
Min Temperature 28 °F 41 °F 16 °F (1965)
Degree Days  
Heating Degree Days 17    
Moisture  
Dew Point 31 °F    
Average Humidity 56    
Maximum Humidity 97    
Minimum Humidity 23    
Precipitation  
Precipitation 0.00 in - - ()
Sea Level Pressure  
Sea Level Pressure 30.14 in    
Wind  
Wind Speed 3 mph (SW)    
Max Wind Speed 10 mph    
Max Gust Speed 20 mph    
Visibility 10 miles    
Events      
Averages and records for this station are not official NWS values.
T = Trace of Precipitation, MM = Missing Value Source: NWS Daily Summary

Daily Weather History Graph

Daily Weather History Graph

Search for Another Location

Airport or City:

Trip Planner

Search our weather history database for the weather conditions in past years. The results will help you decide how hot, cold, wet, or windy it might be!

Date:

Astronomy

Mar. 21, 2014 Rise Set
Actual Time 7:22 AM EDT 7:33 PM EDT
Civil Twilight 6:57 AM EDT 7:58 PM EDT
Nautical Twilight 6:27 AM EDT 8:28 PM EDT
Astronomical Twilight 5:57 AM EDT 8:58 PM EDT
Moon No Moon Rise 10:22 AM EDT (3/21)
Length of Visible Light 13h 01m
Length of Day
12h 10m
Waning Gibbous, 75% of the Moon is Illuminated
Mar 21
Waning Gibbous
Mar 23
Last Quarter
Mar 30
New
Apr 7
First Quarter
Apr 15
Full

Hourly Weather History & Observations

Time (EDT) Temp. Windchill Dew Point Humidity Pressure Visibility Wind Dir Wind Speed Gust Speed Precip Events Conditions
12:15 AM 46.9 °F - 27.0 °F 46% 30.10 in 10.0 mi NNW 3.5 mph - N/A   Clear
12:35 AM 41.9 °F 40.0 °F 30.6 °F 64% 30.11 in 10.0 mi North 3.5 mph - N/A   Clear
12:55 AM 41.5 °F 39.6 °F 30.2 °F 64% 30.12 in 10.0 mi North 3.5 mph - N/A   Clear
1:15 AM 39.6 °F 37.4 °F 29.7 °F 68% 30.12 in 10.0 mi North 3.5 mph - N/A   Clear
1:35 AM 38.3 °F - 31.1 °F 75% 30.12 in 10.0 mi Calm Calm - N/A   Clear
1:55 AM 36.9 °F - 32.0 °F 83% 30.12 in 10.0 mi Calm Calm - N/A   Clear
2:15 AM 35.6 °F - 32.0 °F 87% 30.13 in 10.0 mi Calm Calm - N/A   Clear
2:35 AM 35.1 °F - 30.9 °F 85% 30.13 in 10.0 mi Calm Calm - N/A   Clear
2:55 AM 34.0 °F - 30.6 °F 87% 30.13 in 10.0 mi Calm Calm - N/A   Clear
3:15 AM 34.0 °F - 30.9 °F 89% 30.13 in 10.0 mi Calm Calm - N/A   Clear
3:35 AM 32.5 °F - 31.6 °F 96% 30.12 in 10.0 mi Calm Calm - N/A   Clear
3:55 AM 32.9 °F - 30.6 °F 91% 30.13 in 10.0 mi Calm Calm - N/A   Clear
4:15 AM 32.0 °F - 30.2 °F 93% 30.13 in 10.0 mi Calm Calm - N/A   Clear
4:35 AM 33.1 °F - 29.5 °F 87% 30.13 in 10.0 mi Calm Calm - N/A   Clear
4:55 AM 29.3 °F - 27.7 °F 94% 30.13 in 10.0 mi Calm Calm - N/A   Clear
5:15 AM 30.2 °F - 29.3 °F 96% 30.14 in 10.0 mi Calm Calm - N/A   Clear
5:35 AM 30.0 °F - 29.3 °F 97% 30.14 in 10.0 mi Calm Calm - N/A   Clear
5:55 AM 30.2 °F - 28.9 °F 95% 30.15 in 10.0 mi Calm Calm - N/A   Clear
6:15 AM 30.0 °F - 28.4 °F 94% 30.16 in 10.0 mi Calm Calm - N/A   Clear
6:35 AM 30.6 °F - 28.4 °F 92% 30.17 in 10.0 mi Calm Calm - N/A   Clear
6:55 AM 30.0 °F - 28.0 °F 92% 30.18 in 10.0 mi Calm Calm - N/A   Clear
7:15 AM 28.8 °F - 28.0 °F 97% 30.18 in 10.0 mi Calm Calm - N/A   Clear
7:35 AM 29.8 °F - 28.4 °F 94% 30.19 in 10.0 mi Calm Calm - N/A   Clear
7:55 AM 29.7 °F - 28.2 °F 94% 30.19 in 10.0 mi Calm Calm - N/A   Clear
8:15 AM 31.8 °F - 30.6 °F 95% 30.19 in 10.0 mi Calm Calm - N/A   Clear
8:35 AM 34.3 °F - 32.0 °F 91% 30.19 in 10.0 mi Calm Calm - N/A   Clear
8:55 AM 39.2 °F - 34.0 °F 82% 30.19 in 10.0 mi Calm Calm - N/A   Clear
9:15 AM 43.3 °F - 35.1 °F 73% 30.20 in 10.0 mi Calm Calm - N/A   Clear
9:35 AM 48.2 °F - 32.9 °F 55% 30.21 in 10.0 mi Calm Calm - N/A   Clear
9:55 AM 51.4 °F - 33.1 °F 50% 30.21 in 10.0 mi Calm Calm - N/A   Clear
10:15 AM 54.7 °F - 29.1 °F 38% 30.20 in 10.0 mi South 3.5 mph - N/A   Clear
10:35 AM 56.1 °F - 28.9 °F 35% 30.20 in 10.0 mi Calm Calm - N/A   Clear
10:55 AM 56.5 °F - 26.1 °F 31% 30.21 in 10.0 mi Calm Calm - N/A   Clear
11:15 AM 58.3 °F - 27.7 °F 31% 30.21 in 10.0 mi WSW 4.6 mph - N/A   Clear
11:35 AM 59.0 °F - 27.9 °F 31% 30.21 in 10.0 mi Calm Calm - N/A   Clear
11:55 AM 60.6 °F - 28.9 °F 30% 30.21 in 10.0 mi SSW 8.1 mph - N/A   Clear
12:15 PM 60.6 °F - 28.6 °F 30% 30.21 in 10.0 mi WSW 8.1 mph - N/A   Clear
12:35 PM 62.2 °F - 29.3 °F 29% 30.20 in 10.0 mi SSE 4.6 mph - N/A   Clear
12:55 PM 63.0 °F - 28.8 °F 28% 30.19 in 10.0 mi SW 3.5 mph - N/A   Clear
1:15 PM 63.0 °F - 28.9 °F 28% 30.18 in 10.0 mi SW 6.9 mph - N/A   Clear
1:35 PM 64.6 °F - 28.9 °F 26% 30.17 in 10.0 mi SSE 5.8 mph - N/A   Clear
1:55 PM 64.2 °F - 27.3 °F 25% 30.16 in 10.0 mi Calm Calm - N/A   Clear
2:15 PM 64.2 °F - 28.0 °F 26% 30.15 in 10.0 mi SSE 5.8 mph - N/A   Clear
2:35 PM 66.4 °F - 30.6 °F 26% 30.15 in 10.0 mi SW 10.4 mph - N/A   Clear
2:55 PM 66.6 °F - 29.5 °F 25% 30.14 in 10.0 mi SW 5.8 mph - N/A   Clear
3:15 PM 67.1 °F - 28.0 °F 23% 30.14 in 10.0 mi SSW 10.4 mph - N/A   Clear
3:35 PM 66.7 °F - 28.6 °F 24% 30.12 in 10.0 mi SW 10.4 mph - N/A   Clear
3:55 PM 68.0 °F - 29.8 °F 24% 30.11 in 10.0 mi SW 10.4 mph 19.6 mph N/A   Clear
4:15 PM - - - N/A% 30.10 in 10.0 mi WSW 9.2 mph - N/A   Clear
4:35 PM 68.2 °F - 30.0 °F 24% 30.09 in 10.0 mi SSW 6.9 mph - N/A   Clear
4:55 PM 67.1 °F - 30.0 °F 25% 30.09 in 10.0 mi SSW 9.2 mph - N/A   Clear
5:15 PM 66.6 °F - 29.7 °F 25% 30.09 in 10.0 mi SW 10.4 mph - N/A   Clear
5:35 PM 65.8 °F - 30.6 °F 27% 30.09 in 10.0 mi SW 8.1 mph - N/A   Clear
5:55 PM 64.9 °F - 28.2 °F 25% 30.09 in 10.0 mi SW 8.1 mph - N/A   Clear
6:15 PM 64.9 °F - 29.1 °F 26% 30.09 in 10.0 mi SSW 10.4 mph - N/A   Clear
6:35 PM 64.6 °F - 29.7 °F 27% 30.09 in 10.0 mi South 6.9 mph - N/A   Clear
6:55 PM 63.0 °F - 30.6 °F 30% 30.09 in 10.0 mi South 4.6 mph - N/A   Clear
7:15 PM 61.7 °F - 30.9 °F 31% 30.09 in 10.0 mi South 4.6 mph - N/A   Clear
7:35 PM 58.6 °F - 32.0 °F 37% 30.09 in 10.0 mi South 4.6 mph - N/A   Clear
7:55 PM 57.9 °F - 32.0 °F 37% 30.09 in 10.0 mi Calm Calm - N/A   Clear
8:15 PM 56.8 °F - 32.2 °F 39% 30.09 in 10.0 mi Calm Calm - N/A   Clear
8:35 PM 56.7 °F - 32.2 °F 40% 30.09 in 10.0 mi SSW 4.6 mph - N/A   Clear
8:55 PM 55.6 °F - 32.2 °F 41% 30.10 in 10.0 mi SSW 4.6 mph - N/A   Clear
9:15 PM 54.5 °F - 32.4 °F 43% 30.10 in 10.0 mi SSW 5.8 mph - N/A   Clear
9:35 PM 54.7 °F - 32.4 °F 43% 30.10 in 10.0 mi Calm Calm - N/A   Clear
9:55 PM 48.7 °F - 37.6 °F 65% 30.10 in 10.0 mi Calm Calm - N/A   Clear
10:15 PM 53.4 °F - 32.5 °F 45% 30.10 in 10.0 mi SW 3.5 mph - N/A   Clear
10:35 PM 47.8 °F - 37.6 °F 68% 30.10 in 10.0 mi Calm Calm - N/A   Clear
10:55 PM 48.2 °F - 37.8 °F 67% 30.12 in 10.0 mi Calm Calm - N/A   Clear
11:15 PM 47.8 °F - 35.4 °F 62% 30.12 in 10.0 mi Calm Calm - N/A   Clear
11:35 PM 48.4 °F - 35.2 °F 60% 30.12 in 10.0 mi Calm Calm - N/A   Clear
11:55 PM 46.8 °F - 36.1 °F 67% 30.12 in 10.0 mi Calm Calm - N/A   Clear